Regional Weather Roundup
Issued by NWS Spokane, WA

Home | Current Version | Previous Version | Text Only | Print | Product List | Glossary On
Versions: 1 2 3 4 5 6 7 8 9 10 11 12 13 14 15 16 17 18 19 20 21 22 23 24 25 26 27 28 29 30 31 32 33 34 35 36 37 38 39 40 41 42 43 44 45 46 47 48 49 50
037
NZUS01 KOTX 301325
RWROTX

Eastern Washington/Northern Idaho Roundup
National Weather Service, Spokane WA
600 AM PDT FRI SEP 30 2016

Note: "fair" indicated few or no clouds below 12,000 feet with no
significant weather and/or obstructions to visibility.

...Northeast Washington and Northern Idaho Panhandle...

CITY           SKY/WX    TMP DP  RH WIND       PRES   REMARKS
Spokane Intl   MOCLDY    59  45  59 W12       29.98R
Spokane Downto MOCLDY    58  51  78 NE5       29.96F
Coeur d Alene  MOCLDY    54  53  97 N5        29.99F
Deer Park      CLOUDY    56  46  69 NW6       29.97F
Sandpoint      MOCLDY    52  52 100 NW3       30.01R
Bonners Ferry  FAIR      57  50  77 E5        30.01F

...Southeast Washington and southern Idaho Panhandle...

CITY           SKY/WX    TMP DP  RH WIND       PRES   REMARKS
Walla Walla    PTCLDY    58  41  53 S9        29.97F
Pullman/Moscow PTCLDY    51  45  79 CALM      30.01R
Lewiston       PTCLDY    58  50  75 CALM      29.96R
Lowell           N/A     53  51  93 NW5       29.98S
Grangeville    FAIR      50  43  76 S5        30.01R

...Columbia Basin...

CITY           SKY/WX    TMP DP  RH WIND       PRES   REMARKS
Ephrata        MOCLDY    52  45  77 N5        29.93R
Moses Lake     MOCLDY    54  46  74 S10       29.94R
Pasco          MOCLDY    60  44  55 SW9       29.95R
Richland       PTSUNNY   60  46  61 S7        29.94S
Hermiston      MOCLDY    55  40  56 S7        29.96S
Pendleton      PTCLDY    49  41  74 SE6       29.98S

...East Slopes Cascades...

CITY           SKY/WX    TMP DP  RH WIND       PRES   REMARKS
The Dalles     PTCLDY    58  42  55 NW9       29.97F
Yakima         MOCLDY    58  37  45 S5        29.96R
Ellensburg     PTCLDY    51  38  60 NW14      29.95R
Stampede Pass  CLEAR     37  34  89 VRB6      30.01F
Wenatchee      MOCLDY    58  42  55 NW10      29.93R
Omak           PTCLDY    53  39  59 N8        29.94R
Sunnyside      PTSUNNY   48  46  91 CALM      29.95R

...Southern British Columbia...

CITY           SKY/WX    TMP DP  RH WIND       PRES   REMARKS
Penticton      PTCLDY    46  43  87 N7        29.95S
Castlegar      PTCLDY    52  50  93 N2        29.96
Cranbrook      LGT RAIN  54  48  82 VRB3      30.03S
Osoyoos          N/A     46  45  93 E1          N/A
Creston          N/A     54  50  87 NE1         N/A

...Western Montana...

CITY           SKY/WX    TMP DP  RH WIND       PRES   REMARKS
Kalispell      CLOUDY    54  50  86 N5        30.02F
Libby            N/A     52  52 100 SE5       30.05R
Missoula       PTCLDY    51  45  79 NE6       30.05F

...Neighboring Cities...

CITY           SKY/WX    TMP DP  RH WIND       PRES   REMARKS
Seattle        PTCLDY    46  43  89 SE5       30.05F
Portland       MOCLDY    48  46  93 NW3       30.05S
Boise          CLOUDY    68  44  42 SE7       30.04S
Great Falls    CLOUDY    54  45  71 S12       30.02S
Calgary        MOCLDY    43  39  87 N3        30.01S



USA.gov is the U.S. government's official web portal to all federal, state and local government web resources and services.